This is the latest recevied weather packets stored in our database for station/object IK4NOW-13. If no packets are shown the sender has not sent any weather packets the latest 10 day(s).
| Time | Temp. | Humidity | Pressure | Rain* | Wind** | Luminosity | Snow |
|---|---|---|---|---|---|---|---|
| 1777734840 | 22.22° C | 46% | 1022.7 hPa | - | - | - | - |
| 1777733654 | 22.22° C | 47% | 1022.9 hPa | - | - | - | - |
| 1777730949 | 22.78° C | 47% | 1023.4 hPa | - | - | - | - |
| 1777728244 | 23.33° C | 46% | 1024 hPa | - | - | - | - |
| 1777725538 | 22.78° C | 46% | 1024.4 hPa | - | - | - | - |
| 1777722833 | 22.22° C | 46% | 1024.8 hPa | - | - | - | - |
| 1777720128 | 21.67° C | 47% | 1025.6 hPa | - | - | - | - |
| 1777717423 | 21.11° C | 47% | 1026.1 hPa | - | - | - | - |
| 1777714718 | 20.56° C | 49% | 1026.5 hPa | - | - | - | - |
| 1777712013 | 19.44° C | 51% | 1026.8 hPa | - | - | - | - |
| 1777709309 | 18.33° C | 52% | 1027 hPa | - | - | - | - |
| 1777706604 | 17.22° C | 54% | 1027.2 hPa | - | - | - | - |
| 1777703899 | 17.22° C | 57% | 1027.2 hPa | - | - | - | - |
| 1777701195 | 10.56° C | 60% | 1027.3 hPa | - | - | - | - |
| 1777698490 | 8.33° C | 57% | 1027.4 hPa | - | - | - | - |
| 1777695785 | 7.78° C | 57% | 1027.1 hPa | - | - | - | - |
| 1777693080 | 7.22° C | 57% | 1027 hPa | - | - | - | - |
| 1777690375 | 7.78° C | 57% | 1027 hPa | - | - | - | - |
| 1777687671 | 7.78° C | 57% | 1027.2 hPa | - | - | - | - |
| 1777684965 | 8.33° C | 56% | 1027.2 hPa | - | - | - | - |
| 1777682260 | 8.33° C | 56% | 1027.4 hPa | - | - | - | - |
| 1777679555 | 8.33° C | 56% | 1027.6 hPa | - | - | - | - |
| 1777676850 | 9.44° C | 55% | 1027.6 hPa | - | - | - | - |
| 1777674146 | 10° C | 55% | 1027.6 hPa | - | - | - | - |
| 1777671440 | 10° C | 54% | 1027.3 hPa | - | - | - | - |
* Rain since midnight (hover to see other rain measurements)
** Current wind speed in m/s (hover to see current wind gust speed)